EW9130 Weather Reports


time (UTC)temp
C
wind
direction
speed
KPH
gust
KPH
rain 1hr
cm
rain 24hr
cm
rain mn
cm
humidity
%
barometer
mb
20260504130531 6 360 0.0 0.0 0.00 0.00 0.00 66 1011.2
20260504110513 7 360 0.0 0.0 0.00 0.00 0.00 60 1008.9
20260504100559 8 13 0.0 0.0 0.00 0.00 0.00 59 1007.5
20260504100104 8 360 0.0 0.0 0.00 0.00 0.00 59 1007.5
20260504081536 8 360 0.0 0.0 0.00 0.00 0.00 59 1005.0
20260504081036 8 360 0.0 0.0 0.00 0.00 0.00 58 1005.0
20260504080535 9 360 0.0 0.0 0.00 0.00 0.00 57 1004.8
20260504050517 11 360 0.0 0.0 0.00 0.00 0.00 51 1002.8
20260504050012 12 360 0.0 0.0 0.00 0.00 0.00 51 1002.8
20260504045512 12 360 0.0 0.0 0.00 0.00 0.00 50 1002.9
20260504045016 12 360 0.0 0.0 0.00 0.00 0.00 48 1002.9
20260504044512 12 360 0.0 0.0 0.00 0.00 0.00 49 1002.9
20260504044012 12 360 0.0 0.0 0.00 0.00 0.00 48 1002.9
20260504043511 12 360 0.0 0.0 0.00 0.00 0.00 48 1002.8
20260504043013 13 360 0.0 0.0 0.00 0.00 0.00 47 1002.7
20260504042512 13 360 0.0 0.0 0.00 0.00 0.00 46 1002.7
20260504042010 13 360 0.0 0.0 0.00 0.00 0.00 47 1002.7
20260504041510 14 360 0.0 0.0 0.00 0.00 0.00 45 1002.6
20260504041010 14 360 0.0 0.0 0.00 0.00 0.00 44 1002.6
20260504040510 14 360 0.0 0.0 0.00 0.00 0.00 44 1002.6
20260504040027 15 360 0.0 0.0 0.00 0.00 0.00 44 1002.6
20260504035512 15 360 0.0 0.0 0.00 0.00 0.00 42 1002.6
20260504035010 15 360 0.0 0.0 0.00 0.00 0.00 42 1002.5
20260504034509 16 360 0.0 0.0 0.00 0.00 0.00 40 1002.5
20260504034008 16 360 0.0 0.0 0.00 0.00 0.00 39 1002.4
20260504033509 16 360 0.0 0.0 0.00 0.00 0.00 38 1002.3
20260504033008 17 360 0.0 0.0 0.00 0.00 0.00 37 1002.2
20260504032509 17 360 0.0 0.0 0.00 0.00 0.00 36 1002.1
20260504032012 17 360 0.0 0.0 0.00 0.00 0.00 34 1002.1
20260504031508 18 360 0.0 0.0 0.00 0.00 0.00 34 1002.1
20260504031007 18 360 0.0 0.0 0.00 0.00 0.00 33 1002.0
20260504030508 18 360 0.0 0.0 0.00 0.00 0.00 33 1001.9
20260504030009 18 360 0.0 0.0 0.00 0.00 0.00 33 1001.9
20260504025508 18 15 0.0 0.0 0.00 0.00 0.00 33 1001.8
20260504025009 19 360 0.0 0.0 0.00 0.00 0.00 34 1001.8
20260504024508 19 16 0.0 0.0 0.00 0.00 0.00 35 1001.8
20260504024010 19 360 0.0 0.0 0.00 0.00 0.00 35 1001.7
20260504023509 20 360 0.0 0.0 0.00 0.00 0.00 35 1001.7
20260504023007 20 360 0.0 0.0 0.00 0.00 0.00 35 1001.7
20260504022506 20 360 0.0 0.0 0.00 0.00 0.00 34 1001.6
20260504022007 20 360 0.0 0.0 0.00 0.00 0.00 33 1001.6
20260504021605 21 360 0.0 0.0 0.00 0.00 0.00 33 1001.5
20260504021005 21 360 0.0 0.0 0.00 0.00 0.00 32 1001.4
20260504020505 21 360 0.0 0.0 0.00 0.00 0.00 31 1001.4
20260504020004 21 360 0.0 0.0 0.00 0.00 0.00 30 1001.5
20260504015503 22 360 0.0 0.0 0.00 0.00 0.00 30 1001.5
20260504015003 22 360 0.0 0.0 0.00 0.00 0.00 30 1001.5
20260504014507 22 360 0.0 0.0 0.00 0.00 0.00 29 1001.6
20260504014002 23 360 0.0 0.0 0.00 0.00 0.00 27 1001.5
20260504013502 23 360 0.0 0.0 0.00 0.00 0.00 27 1001.6
20260504013113 23 360 0.0 0.0 0.00 0.00 0.00 26 1001.6
20260504012600 23 360 0.0 16.1 0.00 0.00 0.00 25 1001.6
20260504012100 23 360 1.6 16.1 0.00 0.00 0.00 23 1001.6
20260504011600 23 360 0.0 0.0 0.00 0.00 0.00 23 1001.7
20260504011059 23 360 0.0 0.0 0.00 0.00 0.00 22 1001.7
20260504010559 23 360 0.0 0.0 0.00 0.00 0.00 22 1001.7
20260504010058 24 360 0.0 12.9 0.00 0.00 0.00 22 1001.8
20260504005559 24 360 0.0 12.9 0.00 0.00 0.00 22 1001.8
20260504005102 25 360 0.0 0.0 0.00 0.00 0.00 23 1001.8
20260504004558 25 360 0.0 0.0 0.00 0.00 0.00 22 1001.8
20260504004058 25 360 0.0 0.0 0.00 0.00 0.00 21 1001.8
20260504003557 25 360 0.0 14.5 0.00 0.00 0.00 21 1001.9
20260504003103 25 360 0.0 14.5 0.00 0.00 0.00 21 1001.9
20260504002555 25 360 0.0 0.0 0.00 0.00 0.00 21 1002.0
20260504002055 25 360 0.0 0.0 0.00 0.00 0.00 22 1002.0
20260504001606 25 360 0.0 9.7 0.00 0.00 0.00 21 1002.1
20260504001055 25 360 0.0 17.7 0.00 0.00 0.00 21 1002.2
20260504000553 25 360 0.0 17.7 0.00 0.00 0.00 21 1002.2
20260504000115 25 360 0.0 4.8 0.00 0.00 0.00 20 1002.3
20260503235553 25 360 0.0 8.0 0.00 0.00 0.00 21 1002.3
20260503235053 25 360 0.0 8.0 0.00 0.00 0.00 20 1002.4
20260503234552 25 360 0.0 4.8 0.00 0.00 0.00 20 1002.4
20260503234052 25 360 0.0 9.7 0.00 0.00 0.00 19 1002.4
20260503233551 25 360 0.0 22.5 0.00 0.00 0.00 20 1002.5
20260503233050 25 360 4.8 16.1 0.00 0.00 0.00 19 1002.5
20260503232550 26 360 0.0 12.9 0.00 0.00 0.00 19 1002.6
20260503232049 25 360 0.0 12.9 0.00 0.00 0.00 19 1002.6
20260503231549 25 360 0.0 17.7 0.00 0.00 0.00 19 1002.7
20260503231049 25 360 1.6 17.7 0.00 0.00 0.00 18 1002.8
20260503230546 25 360 0.0 14.5 0.00 0.00 0.00 19 1002.9
20260503230050 25 360 0.0 16.1 0.00 0.00 0.00 19 1003.0
20260503225543 25 360 3.2 16.1 0.00 0.00 0.00 19 1003.0
20260503225043 25 360 1.6 14.5 0.00 0.00 0.00 22 1003.0
20260503224546 25 360 0.0 14.5 0.00 0.00 0.00 23 1003.2
20260503224042 25 360 0.0 12.9 0.00 0.00 0.00 24 1003.2
20260503223541 25 360 0.0 12.9 0.00 0.00 0.00 25 1003.3
20260503223141 25 360 0.0 17.7 0.00 0.00 0.00 24 1003.3
20260503222538 25 360 0.0 17.7 0.00 0.00 0.00 24 1003.5
20260503222042 25 360 4.8 17.7 0.00 0.00 0.00 24 1003.6
20260503221537 25 360 1.6 16.1 0.00 0.00 0.00 25 1003.7
20260503221037 25 360 0.0 14.5 0.00 0.00 0.00 25 1003.8
20260503220535 24 360 3.2 14.5 0.00 0.00 0.00 26 1004.0
20260503220034 25 360 0.0 8.0 0.00 0.00 0.00 25 1004.1
20260503215534 25 360 0.0 0.0 0.00 0.00 0.00 26 1004.1
20260503215032 25 360 0.0 12.9 0.00 0.00 0.00 26 1004.3
20260503214532 25 360 0.0 12.9 0.00 0.00 0.00 27 1004.4
20260503214031 25 360 0.0 9.7 0.00 0.00 0.00 24 1004.5
20260503213529 25 360 0.0 16.1 0.00 0.00 0.00 28 1004.6
20260503213028 25 360 0.0 17.7 0.00 0.00 0.00 25 1004.8
20260503212527 25 360 0.0 17.7 0.00 0.00 0.00 25 1004.9
20260503212027 24 360 0.0 17.7 0.00 0.00 0.00 26 1005.0
20260503211526 25 360 0.0 16.1 0.00 0.00 0.00 25 1005.3
20260503211029 25 360 0.0 0.0 0.00 0.00 0.00 27 1005.4
20260503210529 24 360 0.0 9.7 0.00 0.00 0.00 26 1005.4
20260503210023 24 360 0.0 9.7 0.00 0.00 0.00 26 1005.6
20260503205522 24 360 0.0 9.7 0.00 0.00 0.00 25 1005.7
20260503205022 24 360 0.0 16.1 0.00 0.00 0.00 24 1005.8
20260503204527 23 360 1.6 24.1 0.00 0.00 0.00 26 1006.0
20260503204023 23 360 0.0 24.1 0.00 0.00 0.00 26 1005.9
20260503203523 24 360 0.0 16.1 0.00 0.00 0.00 27 1006.1
20260503203018 23 360 3.2 16.1 0.00 0.00 0.00 28 1006.2
20260503202518 23 360 6.4 19.3 0.00 0.00 0.00 27 1006.3
20260503202017 23 360 4.8 19.3 0.00 0.00 0.00 28 1006.4
20260503201515 23 360 1.6 12.9 0.00 0.00 0.00 27 1006.5
20260503201013 23 360 0.0 8.0 0.00 0.00 0.00 26 1006.6
20260503200513 23 360 0.0 6.4 0.00 0.00 0.00 28 1006.8
20260503200011 23 360 0.0 14.5 0.00 0.00 0.00 30 1006.8
20260503195510 23 360 0.0 14.5 0.00 0.00 0.00 31 1006.9
20260503195010 23 360 0.0 14.5 0.00 0.00 0.00 31 1007.0
20260503194509 23 360 0.0 14.5 0.00 0.00 0.00 30 1007.1
20260503194008 23 360 0.0 8.0 0.00 0.00 0.00 31 1007.2
20260503193510 22 360 0.0 8.0 0.00 0.00 0.00 31 1007.3
20260503193015 22 360 0.0 12.9 0.00 0.00 0.00 31 1007.4
20260503192504 22 360 1.6 12.9 0.00 0.00 0.00 32 1007.6
20260503192005 22 360 0.0 8.0 0.00 0.00 0.00 32 1007.7
20260503191502 22 360 0.0 16.1 0.00 0.00 0.00 34 1007.9
20260503191002 22 360 3.2 17.7 0.00 0.00 0.00 32 1008.1
20260503190600 22 360 0.0 17.7 0.00 0.00 0.00 31 1008.1
20260503190105 22 360 1.6 14.5 0.00 0.00 0.00 34 1008.2
20260503185558 22 360 3.2 16.1 0.00 0.00 0.00 31 1008.4
20260503185059 22 360 0.0 16.1 0.00 0.00 0.00 32 1008.5
20260503184556 22 360 0.0 8.0 0.00 0.00 0.00 33 1008.6
20260503184054 21 360 0.0 12.9 0.00 0.00 0.00 34 1008.6
20260503183553 21 360 0.0 12.9 0.00 0.00 0.00 32 1008.8
20260503183108 21 360 0.0 0.0 0.00 0.00 0.00 40 1008.8
20260503182551 21 360 0.0 0.0 0.00 0.00 0.00 39 1008.9
20260503182049 21 360 0.0 0.0 0.00 0.00 0.00 40 1009.0
20260503181614 20 360 0.0 8.0 0.00 0.00 0.00 40 1009.2
20260503181047 20 360 0.0 6.4 0.00 0.00 0.00 40 1009.3
20260503180546 20 360 0.0 0.0 0.00 0.00 0.00 42 1009.4
20260503180045 20 360 0.0 0.0 0.00 0.00 0.00 41 1009.5
20260503175543 20 360 0.0 0.0 0.00 0.00 0.00 40 1009.6
20260503175045 20 360 0.0 0.0 0.00 0.00 0.00 41 1009.7
20260503174542 20 360 0.0 0.0 0.00 0.00 0.00 42 1009.8
20260503174039 20 360 0.0 0.0 0.00 0.00 0.00 44 1009.9
20260503173538 20 360 0.0 0.0 0.00 0.00 0.00 44 1010.1
20260503173036 19 360 0.0 0.0 0.00 0.00 0.00 44 1010.1
20260503172538 19 360 0.0 0.0 0.00 0.00 0.00 45 1010.2
20260503172036 18 360 0.0 0.0 0.00 0.00 0.00 45 1010.4
20260503171532 18 360 0.0 0.0 0.00 0.00 0.00 47 1010.5
20260503171031 18 360 0.0 0.0 0.00 0.00 0.00 46 1010.6
20260503170529 18 360 0.0 0.0 0.00 0.00 0.00 47 1010.7
20260503150558 13 360 0.0 0.0 0.00 0.00 0.00 59 1012.3